FW7988 Weather Reports


Display with metric or nautical units.
time (UTC)temp
F
wind
direction
speed
MPH
gust
MPH
rain 1hr
in
rain 24hr
in
rain mn
in
humidity
%
barometer
mb
20220705123639 76 247 5.0 9.0 0.00 0.00 0.00 89 1019.2
20220705123138 76 240 6.0 10.0 0.00 0.00 0.00 89 1019.0
20220705122638 76 236 7.0 10.0 0.00 0.00 0.00 90 1019.0
20220705122137 76 216 5.0 10.0 0.00 0.00 0.00 90 1019.0
20220705121635 76 225 5.0 8.0 0.00 0.00 0.00 91 1019.0
20220705121134 75 227 7.0 11.0 0.00 0.00 0.00 91 1018.8
20220705120633 75 215 5.0 7.0 0.00 0.00 0.00 92 1018.9
20220705120131 75 238 5.0 8.0 0.00 0.00 0.00 93 1019.0
20220705115629 75 234 4.0 8.0 0.00 0.00 0.00 93 1018.8
20220705115129 75 243 4.0 8.0 0.00 0.00 0.00 94 1018.8
20220705114627 75 234 3.0 8.0 0.00 0.00 0.00 94 1018.5
20220705114126 75 197 7.0 8.0 0.00 0.00 0.00 94 1018.5
20220705113626 75 242 5.0 7.0 0.00 0.00 0.00 94 1018.9
20220705113124 75 207 5.0 7.0 0.00 0.00 0.00 94 1018.6
20220705112620 75 240 7.0 9.0 0.00 0.00 0.00 94 1018.6
20220705112119 75 178 5.0 7.0 0.00 0.00 0.00 94 1018.6
20220705111618 75 208 5.0 7.0 0.00 0.00 0.00 94 1018.6
20220705111117 75 221 5.0 9.0 0.00 0.00 0.00 94 1018.4
20220705110616 75 226 5.0 8.0 0.00 0.00 0.00 94 1018.2
20220705110114 75 241 5.0 8.0 0.00 0.00 0.00 94 1018.3
20220705105614 75 241 6.0 7.0 0.00 0.00 0.00 94 1018.4
20220705105114 75 224 6.0 8.0 0.00 0.00 0.00 95 1018.2
20220705104612 75 206 7.0 8.0 0.00 0.00 0.00 95 1018.4
20220705104112 75 234 8.0 9.0 0.00 0.00 0.00 95 1018.6
20220705103611 75 199 6.0 9.0 0.00 0.00 0.00 95 1018.3
20220705103110 75 235 5.0 8.0 0.00 0.00 0.00 94 1018.4
20220705102609 75 237 6.0 7.0 0.00 0.00 0.00 94 1018.5
20220705102109 75 236 3.0 6.0 0.00 0.00 0.00 94 1018.4
20220705101608 75 239 5.0 8.0 0.00 0.00 0.00 94 1018.5
20220705101107 76 224 6.0 9.0 0.00 0.00 0.00 94 1018.4
20220705100607 76 267 7.0 9.0 0.00 0.00 0.00 94 1018.5
20220705100105 76 232 5.0 8.0 0.00 0.00 0.00 94 1018.4
20220705095605 76 196 5.0 8.0 0.00 0.00 0.00 93 1018.6
20220705095105 76 245 6.0 7.0 0.00 0.00 0.00 93 1018.4
20220705094605 76 227 5.0 8.0 0.00 0.00 0.00 93 1018.5
20220705094104 76 210 6.0 9.0 0.00 0.00 0.00 93 1018.5
20220705093602 76 262 5.0 10.0 0.00 0.00 0.00 93 1018.6
20220705093100 76 239 5.0 8.0 0.00 0.00 0.00 92 1018.4
20220705092559 76 238 6.0 9.0 0.00 0.00 0.00 92 1018.5
20220705092058 76 227 6.0 10.0 0.00 0.00 0.00 92 1018.6
20220705091558 76 227 7.0 9.0 0.00 0.00 0.00 92 1018.5
20220705091057 76 214 6.0 10.0 0.00 0.00 0.00 92 1018.5
20220705090556 76 242 7.0 10.0 0.00 0.00 0.00 92 1018.3
20220705090055 76 208 10.0 11.0 0.00 0.00 0.00 92 1018.6
20220705085555 77 225 8.0 13.0 0.00 0.00 0.00 92 1018.4
20220705085055 77 222 10.0 13.0 0.00 0.00 0.00 91 1018.4
20220705084553 77 244 7.0 9.0 0.00 0.00 0.00 91 1018.5
20220705084053 77 225 7.0 9.0 0.00 0.00 0.00 91 1018.5
20220705083552 77 205 8.0 13.0 0.00 0.00 0.00 91 1018.5
20220705083052 77 226 5.0 8.0 0.00 0.00 0.00 91 1018.5
20220705082551 77 231 7.0 9.0 0.00 0.00 0.00 91 1018.6
20220705082049 77 165 5.0 10.0 0.00 0.00 0.00 91 1018.5
20220705081550 77 218 7.0 9.0 0.00 0.00 0.00 92 1019.1
20220705081049 77 236 6.0 10.0 0.00 0.00 0.00 92 1018.9
20220705080548 77 268 6.0 9.0 0.00 0.00 0.00 92 1018.5
20220705080046 77 221 5.0 8.0 0.00 0.00 0.00 91 1018.8
20220705075545 77 257 6.0 9.0 0.00 0.00 0.00 91 1018.9
20220705075043 77 228 6.0 8.0 0.00 0.00 0.00 91 1018.9
20220705074542 77 260 5.0 9.0 0.00 0.00 0.00 91 1018.9
20220705074042 77 197 5.0 8.0 0.00 0.00 0.00 91 1019.0
20220705073540 77 229 5.0 7.0 0.00 0.00 0.00 91 1019.0
20220705073039 77 229 5.0 9.0 0.00 0.00 0.00 90 1019.1
20220705072537 77 257 6.0 9.0 0.00 0.00 0.00 90 1019.0
20220705072037 77 239 6.0 8.0 0.00 0.00 0.00 90 1019.1
20220705071537 77 238 5.0 6.0 0.00 0.00 0.00 90 1018.9
20220705071036 78 225 5.0 7.0 0.00 0.00 0.00 90 1019.0
20220705070535 78 200 7.0 9.0 0.00 0.00 0.00 89 1018.9
20220705070033 78 236 8.0 9.0 0.00 0.00 0.00 89 1019.1
20220705065532 78 207 4.0 7.0 0.00 0.00 0.00 88 1019.3
20220705065031 78 227 6.0 15.0 0.00 0.00 0.00 88 1019.3
20220705064532 78 239 7.0 9.0 0.00 0.00 0.00 88 1019.1
20220705064032 78 233 7.0 10.0 0.00 0.00 0.00 87 1019.2
20220705063530 78 245 5.0 11.0 0.00 0.00 0.00 86 1019.1
20220705063029 78 212 4.0 10.0 0.00 0.00 0.00 85 1019.2
20220705062527 78 232 5.0 10.0 0.00 0.00 0.00 85 1019.4
20220705062026 79 215 6.0 9.0 0.00 0.00 0.00 84 1019.5
20220705061526 79 204 6.0 8.0 0.00 0.00 0.00 83 1019.5
20220705061025 79 260 6.0 8.0 0.00 0.00 0.00 82 1019.3
20220705060524 79 215 8.0 9.0 0.00 0.00 0.00 82 1019.3
20220705060022 79 229 5.0 8.0 0.00 0.00 0.00 81 1019.4
20220705055522 80 223 7.0 9.0 0.00 0.00 0.00 80 1019.5
20220705055023 80 277 8.0 16.0 0.00 0.00 0.00 80 1019.5
20220705054522 80 246 5.0 9.0 0.00 0.00 0.00 79 1019.2
20220705054021 80 183 5.0 8.0 0.00 0.00 0.00 78 1019.3
20220705053521 80 205 7.0 8.0 0.00 0.00 0.00 77 1019.4
20220705053020 80 198 5.0 11.0 0.00 0.00 0.00 76 1019.5
20220705052520 80 187 7.0 10.0 0.00 0.00 0.00 76 1019.2
20220705052019 80 214 5.0 13.0 0.00 0.00 0.00 75 1019.4
20220705051519 81 237 4.0 8.0 0.00 0.00 0.00 75 1019.2
20220705051018 81 224 7.0 14.0 0.00 0.00 0.00 74 1019.5
20220705050516 81 186 4.0 9.0 0.00 0.00 0.00 73 1019.4
20220705050015 81 195 5.0 14.0 0.00 0.00 0.00 72 1019.4
20220705045513 82 194 4.0 13.0 0.00 0.00 0.00 71 1019.3
20220705045012 82 204 9.0 15.0 0.00 0.00 0.00 70 1019.3
20220705044511 82 197 8.0 14.0 0.00 0.00 0.00 69 1019.1
20220705044009 82 216 6.0 14.0 0.00 0.00 0.00 68 1019.4
20220705043508 82 209 5.0 17.0 0.00 0.00 0.00 66 1019.0
20220705043008 83 212 5.0 11.0 0.00 0.00 0.00 64 1019.3
20220705042508 83 157 5.0 8.0 0.00 0.00 0.00 64 1019.2
20220705042007 83 278 9.0 15.0 0.00 0.00 0.00 65 1019.1
20220705041507 83 199 5.0 13.0 0.00 0.00 0.00 66 1018.9
20220705041006 84 245 7.0 10.0 0.00 0.00 0.00 68 1019.1
20220705040506 84 207 11.0 16.0 0.00 0.00 0.00 67 1018.9
20220705040005 84 256 7.0 10.0 0.00 0.00 0.00 68 1018.8
20220705035504 84 190 5.0 9.0 0.00 0.00 0.00 68 1018.8
20220705035004 84 185 5.0 10.0 0.00 0.00 0.00 67 1018.8
20220705034503 85 210 8.0 9.0 0.00 0.00 0.00 67 1018.5
20220705034002 85 204 7.0 13.0 0.00 0.00 0.00 66 1018.3
20220705033502 85 185 7.0 16.0 0.00 0.00 0.00 65 1018.0
20220705033001 86 212 13.0 15.0 0.00 0.00 0.00 65 1018.3
20220705032500 86 249 7.0 17.0 0.00 0.00 0.00 64 1018.3
20220705031958 86 215 9.0 14.0 0.00 0.00 0.00 63 1018.2
20220705031457 86 222 9.0 13.0 0.00 0.00 0.00 62 1018.3
20220705030955 86 208 6.0 9.0 0.00 0.00 0.00 61 1018.1
20220705030455 87 197 10.0 15.0 0.00 0.00 0.00 61 1018.1
20220705025953 87 188 7.0 13.0 0.00 0.00 0.00 59 1017.7
20220705025452 87 222 6.0 16.0 0.00 0.00 0.00 59 1017.8
20220705024951 87 212 5.0 10.0 0.00 0.00 0.00 58 1017.6
20220705024451 88 201 5.0 7.0 0.00 0.00 0.00 57 1017.6
20220705023950 88 236 7.0 14.0 0.00 0.00 0.00 56 1017.5
20220705023449 88 179 5.0 11.0 0.00 0.00 0.00 56 1017.3
20220705022949 89 223 5.0 9.0 0.00 0.00 0.00 55 1017.2
20220705022448 89 189 7.0 11.0 0.00 0.00 0.00 54 1017.2
20220705021947 89 220 8.0 10.0 0.00 0.00 0.00 53 1017.1
20220705021445 89 226 5.0 11.0 0.00 0.00 0.00 52 1017.0
20220705020943 90 192 5.0 9.0 0.00 0.00 0.00 51 1017.0
20220705020442 90 197 7.0 10.0 0.00 0.00 0.00 50 1017.0
20220705015940 90 210 5.0 13.0 0.00 0.00 0.00 50 1016.8
20220705015440 90 221 2.0 7.0 0.00 0.00 0.00 50 1016.9
20220705014939 91 231 3.0 9.0 0.00 0.00 0.00 49 1016.6
20220705014438 91 227 6.0 8.0 0.00 0.00 0.00 49 1016.9
20220705013937 91 158 7.0 9.0 0.00 0.00 0.00 49 1016.7
20220705013435 91 210 3.0 11.0 0.00 0.00 0.00 48 1016.6
20220705012934 91 193 7.0 10.0 0.00 0.00 0.00 48 1016.5
20220705012434 92 198 5.0 8.0 0.00 0.00 0.00 48 1016.3
20220705011932 92 146 4.0 7.0 0.00 0.00 0.00 47 1016.6
20220705011431 92 235 4.0 9.0 0.00 0.00 0.00 47 1016.5
20220705010929 92 209 4.0 8.0 0.00 0.00 0.00 47 1016.3
20220705010429 92 210 7.0 11.0 0.00 0.00 0.00 47 1016.4
20220705005928 93 205 6.0 13.0 0.00 0.00 0.00 46 1016.2
20220705005427 93 230 5.0 9.0 0.00 0.00 0.00 46 1016.4
20220705004925 93 217 7.0 14.0 0.00 0.00 0.00 46 1016.3
20220705004425 93 193 8.0 15.0 0.00 0.00 0.00 45 1016.4
20220705003923 93 252 9.0 11.0 0.00 0.00 0.00 45 1016.1
20220705003424 94 231 6.0 11.0 0.00 0.00 0.00 45 1016.1
20220705002923 94 204 6.0 11.0 0.00 0.00 0.00 45 1016.3
20220705002423 94 215 7.0 10.0 0.00 0.00 0.00 45 1016.1
20220705001922 94 210 5.0 11.0 0.00 0.00 0.00 45 1016.1
20220705001422 94 237 8.0 11.0 0.00 0.00 0.00 44 1016.2
20220705000922 94 190 6.0 11.0 0.00 0.00 0.00 44 1016.2
20220705000420 94 234 8.0 9.0 0.00 0.00 0.00 44 1016.3
20220704235919 95 212 4.0 9.0 0.00 0.00 0.00 43 1016.2
20220704235418 95 208 6.0 10.0 0.00 0.00 0.00 42 1016.1
20220704234917 96 219 8.0 10.0 0.00 0.00 0.00 41 1016.1
20220704234417 96 202 9.0 11.0 0.00 0.00 0.00 40 1016.1
20220704233916 96 269 4.0 11.0 0.00 0.00 0.00 39 1016.0
20220704233415 96 165 8.0 14.0 0.00 0.00 0.00 39 1016.0
20220704232915 96 177 3.0 9.0 0.00 0.00 0.00 37 1016.2
20220704232414 96 239 8.0 14.0 0.00 0.00 0.00 38 1016.2
20220704231913 96 191 7.0 10.0 0.00 0.00 0.00 39 1016.2
20220704231411 96 151 6.0 14.0 0.00 0.00 0.00 38 1016.2
20220704230910 97 132 6.0 10.0 0.00 0.00 0.00 38 1016.3
20220704230409 96 202 8.0 11.0 0.00 0.00 0.00 39 1016.3
20220704225907 97 208 5.0 9.0 0.00 0.00 0.00 38 1016.5
20220704225407 97 214 7.0 13.0 0.00 0.00 0.00 38 1016.7
20220704224905 97 208 6.0 10.0 0.00 0.00 0.00 38 1016.2
20220704224406 96 202 5.0 11.0 0.00 0.00 0.00 39 1016.5
20220704223905 97 182 7.0 9.0 0.00 0.00 0.00 38 1016.5
20220704223404 96 253 9.0 13.0 0.00 0.00 0.00 37 1016.5
20220704222904 96 238 5.0 11.0 0.00 0.00 0.00 37 1016.6
20220704222402 97 253 10.0 15.0 0.00 0.00 0.00 36 1016.7
20220704221900 97 260 7.0 15.0 0.00 0.00 0.00 38 1016.6
20220704221359 97 197 5.0 7.0 0.00 0.00 0.00 38 1016.6
20220704220857 97 251 7.0 13.0 0.00 0.00 0.00 37 1016.8
20220704220355 96 184 11.0 15.0 0.00 0.00 0.00 38 1016.9
20220704215855 96 209 5.0 8.0 0.00 0.00 0.00 37 1017.1
20220704215353 96 206 9.0 15.0 0.00 0.00 0.00 38 1017.0
20220704214853 96 259 10.0 14.0 0.00 0.00 0.00 38 1017.1
20220704214352 96 224 10.0 13.0 0.00 0.00 0.00 38 1016.9
20220704213851 95 151 5.0 9.0 0.00 0.00 0.00 39 1017.2
20220704213351 96 225 5.0 9.0 0.00 0.00 0.00 37 1017.4
20220704212850 95 219 6.0 10.0 0.00 0.00 0.00 38 1017.5
20220704212349 95 172 9.0 13.0 0.00 0.00 0.00 39 1017.4
20220704211847 95 209 7.0 14.0 0.00 0.00 0.00 39 1017.4
20220704211346 96 193 5.0 9.0 0.00 0.00 0.00 37 1017.3
20220704210847 95 199 8.0 10.0 0.00 0.00 0.00 39 1017.6
20220704210345 95 226 8.0 15.0 0.00 0.00 0.00 39 1017.5
20220704205844 95 223 4.0 9.0 0.00 0.00 0.00 41 1017.5
20220704205344 94 221 7.0 13.0 0.00 0.00 0.00 42 1017.7
20220704204843 95 196 8.0 11.0 0.00 0.00 0.00 42 1017.7
20220704204343 94 224 9.0 15.0 0.00 0.00 0.00 42 1017.9
20220704203843 95 195 5.0 14.0 0.00 0.00 0.00 44 1018.0
20220704203341 95 191 10.0 15.0 0.00 0.00 0.00 42 1018.0
20220704202840 95 194 5.0 11.0 0.00 0.00 0.00 42 1018.1
20220704202340 95 214 7.0 15.0 0.00 0.00 0.00 43 1018.1
20220704201839 93 225 11.0 15.0 0.00 0.00 0.00 44 1017.9
20220704201338 94 266 3.0 8.0 0.00 0.00 0.00 43 1018.2
20220704200836 94 203 8.0 14.0 0.00 0.00 0.00 43 1018.2
20220704200335 94 271 3.0 7.0 0.00 0.00 0.00 44 1018.5
20220704195834 94 227 7.0 11.0 0.00 0.00 0.00 43 1018.4
20220704195332 93 218 3.0 13.0 0.00 0.00 0.00 44 1018.5
20220704194831 94 119 7.0 16.0 0.00 0.00 0.00 44 1018.8
20220704194331 93 203 12.0 16.0 0.00 0.00 0.00 43 1018.8
20220704193831 94 191 5.0 10.0 0.00 0.00 0.00 44 1018.9
20220704193331 93 311 4.0 14.0 0.00 0.00 0.00 45 1018.8
20220704192831 93 225 7.0 14.0 0.00 0.00 0.00 45 1018.8
20220704192329 93 204 11.0 16.0 0.00 0.00 0.00 44 1018.8
20220704191828 92 151 6.0 9.0 0.00 0.00 0.00 45 1019.1
20220704191327 92 215 7.0 13.0 0.00 0.00 0.00 46 1019.2
20220704190827 93 178 11.0 15.0 0.00 0.00 0.00 45 1019.1
20220704190325 92 236 7.0 11.0 0.00 0.00 0.00 45 1019.2
20220704185825 92 201 8.0 15.0 0.00 0.00 0.00 47 1019.1
20220704185324 91 233 12.0 14.0 0.00 0.00 0.00 47 1019.2
20220704184824 91 227 10.0 14.0 0.00 0.00 0.00 48 1019.5
20220704184323 93 244 6.0 16.0 0.00 0.00 0.00 46 1019.6
20220704183822 92 176 5.0 11.0 0.00 0.00 0.00 47 1019.6
20220704183320 91 153 7.0 15.0 0.00 0.00 0.00 48 1019.8
20220704182819 91 182 6.0 13.0 0.00 0.00 0.00 48 1019.7
20220704182319 92 213 9.0 13.0 0.00 0.00 0.00 46 1019.5
20220704181818 91 208 5.0 17.0 0.00 0.00 0.00 48 1019.9
20220704181318 91 215 6.0 13.0 0.00 0.00 0.00 49 1019.9
20220704180817 90 187 6.0 17.0 0.00 0.00 0.00 50 1019.9
20220704180315 89 195 4.0 8.0 0.00 0.00 0.00 51 1020.0
20220704175815 91 166 9.0 14.0 0.00 0.00 0.00 50 1020.1
20220704175314 90 221 11.0 16.0 0.00 0.00 0.00 52 1019.8
20220704174812 89 232 7.0 13.0 0.00 0.00 0.00 50 1020.1
20220704174311 90 236 11.0 16.0 0.00 0.00 0.00 51 1020.0
20220704173810 89 205 5.0 9.0 0.00 0.00 0.00 50 1020.2
20220704173309 89 269 7.0 13.0 0.00 0.00 0.00 53 1020.0
20220704172807 89 225 9.0 10.0 0.00 0.00 0.00 53 1020.2
20220704172306 89 215 6.0 13.0 0.00 0.00 0.00 54 1020.0
20220704171805 88 251 12.0 14.0 0.00 0.00 0.00 55 1020.1
20220704171306 87 174 5.0 13.0 0.00 0.00 0.00 56 1020.1
20220704170805 87 241 9.0 13.0 0.00 0.00 0.00 55 1020.1
20220704170303 87 238 8.0 14.0 0.00 0.00 0.00 57 1020.3
20220704165803 88 228 13.0 17.0 0.00 0.00 0.00 57 1020.1
20220704165301 88 221 7.0 13.0 0.00 0.00 0.00 57 1020.2
20220704164800 87 218 5.0 13.0 0.00 0.00 0.00 58 1020.3
20220704164258 87 217 7.0 11.0 0.00 0.00 0.00 58 1020.2
20220704163758 87 176 9.0 14.0 0.00 0.00 0.00 58 1020.3
20220704163256 87 207 14.0 17.0 0.00 0.00 0.00 60 1020.2
20220704162755 87 191 11.0 15.0 0.00 0.00 0.00 58 1020.4
20220704162254 87 230 11.0 16.0 0.00 0.00 0.00 58 1020.5
20220704161753 86 248 8.0 14.0 0.00 0.00 0.00 59 1020.2
20220704161251 86 176 7.0 13.0 0.00 0.00 0.00 62 1020.5
20220704160750 86 207 7.0 16.0 0.00 0.00 0.00 60 1020.4
20220704160249 85 234 7.0 16.0 0.00 0.00 0.00 63 1020.2
20220704155748 85 238 10.0 13.0 0.00 0.00 0.00 63 1020.1
20220704155247 85 229 8.0 15.0 0.00 0.00 0.00 63 1020.3
20220704154747 85 245 8.0 14.0 0.00 0.00 0.00 63 1020.3
20220704154246 85 202 7.0 13.0 0.00 0.00 0.00 64 1020.2
20220704153746 84 238 7.0 13.0 0.00 0.00 0.00 65 1020.2
20220704153244 83 232 11.0 13.0 0.00 0.00 0.00 65 1020.3
20220704152744 84 209 8.0 14.0 0.00 0.00 0.00 66 1020.2
20220704152242 83 197 9.0 20.0 0.00 0.00 0.00 67 1020.1
20220704151742 84 253 8.0 11.0 0.00 0.00 0.00 67 1020.0
20220704151241 83 231 10.0 13.0 0.00 0.00 0.00 68 1020.3
20220704150740 83 260 10.0 15.0 0.00 0.00 0.00 69 1020.0
20220704150240 83 186 8.0 11.0 0.00 0.00 0.00 68 1020.0
20220704145739 83 255 11.0 15.0 0.00 0.00 0.00 69 1020.3
20220704145237 82 224 9.0 15.0 0.00 0.00 0.00 71 1020.5
20220704144737 81 234 13.0 18.0 0.00 0.00 0.00 73 1020.1
20220704144237 81 234 9.0 17.0 0.00 0.00 0.00 75 1020.6
20220704143736 81 214 9.0 16.0 0.00 0.00 0.00 73 1020.3
20220704143234 81 243 10.0 16.0 0.00 0.00 0.00 74 1020.1
20220704142735 80 258 12.0 17.0 0.00 0.00 0.00 76 1020.1
20220704142233 80 252 10.0 18.0 0.00 0.00 0.00 76 1020.0
20220704141734 79 209 11.0 20.0 0.00 0.00 0.00 78 1020.0
20220704141232 80 239 10.0 17.0 0.00 0.00 0.00 77 1020.1
20220704140732 79 279 12.0 15.0 0.00 0.00 0.00 78 1020.1
20220704140231 80 232 10.0 20.0 0.00 0.00 0.00 77 1019.8
20220704135731 80 232 10.0 14.0 0.00 0.00 0.00 79 1020.1
20220704135230 80 161 7.0 11.0 0.00 0.00 0.00 79 1020.1
20220704134728 80 201 8.0 11.0 0.00 0.00 0.00 81 1020.0
20220704134227 80 239 11.0 14.0 0.00 0.00 0.00 81 1020.1
20220704133727 79 205 7.0 11.0 0.00 0.00 0.00 83 1020.0
20220704133225 79 232 6.0 10.0 0.00 0.00 0.00 83 1019.9
20220704132725 79 213 10.0 14.0 0.00 0.00 0.00 85 1019.8
20220704132224 78 240 9.0 10.0 0.00 0.00 0.00 86 1020.0
20220704131722 78 194 10.0 13.0 0.00 0.00 0.00 87 1019.8
20220704131221 77 245 6.0 11.0 0.00 0.00 0.00 88 1019.7
20220704130720 77 240 7.0 13.0 0.00 0.00 0.00 89 1019.6
20220704130219 77 164 5.0 10.0 0.00 0.00 0.00 90 1019.7
20220704125719 77 260 9.0 14.0 0.00 0.00 0.00 90 1019.6
20220704125218 77 230 6.0 11.0 0.00 0.00 0.00 91 1019.6
20220704124717 76 224 9.0 16.0 0.00 0.00 0.00 92 1019.5
20220704124216 76 216 7.0 11.0 0.00 0.00 0.00 92 1019.4
20220704123715 76 233 9.0 14.0 0.00 0.00 0.00 93 1019.4